RH
26 26 25 24 27 35 39 43 50 59 60 57 46 42 40 34 32 31 34 36 34 31 27 26 26 26 26 22 19 19 20 23 23 18 20 17 15 20 25 28 34 32 35
38 38 37 42 50 51 48 45 44 42 41 43 42 43 43 43 40 40 40 39 35 35 33 27 23 20 18 17 16 14 14 15 17 17 15 16 16 16 19 22 25 31 33
51 53 53 58 58 53 53 54 52 51 53 53 55 51 45 43 44 40 39 37 37 31 25 18 12 11 10 10 9 9 8 10 11 11 11 10 12 13 13 14 16 21 33
68 67 66 77 74 63 56 56 56 56 52 47 44 42 42 39 39 39 44 40 29 24 21 16 11 7 6 7 6 6 7 6 7 9 9 10 10 9 12 13 12 14 17
77 77 75 68 58 59 58 53 47 42 41 40 39 42 45 46 47 44 37 30 25 25 22 17 12 8 4 4 4 5 6 6 6 7 7 8 9 10 9 12 13 12 13
63 65 68 70 71 61 52 46 47 40 37 36 34 35 37 38 36 30 26 23 22 19 18 16 10 6 4 3 3 3 4 4 6 6 7 7 8 9 8 9 12 12 14
66 63 68 70 67 60 50 48 40 38 35 33 30 29 28 26 24 22 22 19 25 29 24 23 23 8 4 3 3 3 3 3 4 5 6 6 6 7 7 8 9 10 13
86 91 77 57 50 46 42 42 42 39 32 29 26 24 22 22 20 17 30 39 48 47 51 42 30 18 6 5 4 3 3 3 3 4 5 5 7 7 8 8 7 8 11
85 61 43 41 40 39 40 40 38 32 27 24 23 20 19 22 48 63 71 72 78 79 68 55 46 39 13 7 5 5 4 4 4 4 4 5 5 6 8 8 10 10 9
49 45 44 42 43 44 41 34 28 26 25 21 26 46 71 80 80 84 96 93 92 83 72 57 50 43 35 15 7 6 6 6 5 5 5 5 5 5 5 6 6 7 9
44 46 47 47 42 36 30 26 23 19 51 63 73 86 96 85 89 95 91 91 86 70 68 59 50 46 42 42 26 11 6 7 7 6 5 5 5 5 5 5 5 6 7
51 43 36 36 28 28 23 17 68 87 87 93 99 93 96 93 94 84 94 81 72 73 62 57 50 46 44 42 41 38 28 15 8 7 7 6 5 5 5 5 5 6 6
32 31 29 26 24 40 53 85 100 94 100 99 80 98 99 88 92 97 87 77 71 62 58 55 53 50 47 45 44 43 38 38 34 28 19 13 9 7 6 6 6 6 6
19 23 36 49 89 95 98 94 88 100 100 91 88 84 91 84 91 83 76 65 62 58 55 51 48 46 46 46 45 43 41 41 42 38 34 32 30 22 14 9 8 8 8
71 90 92 100 100 97 97 75 91 77 95 77 83 83 82 86 82 72 64 64 60 53 48 44 44 45 44 43 42 40 39 40 39 38 38 36 35 33 31 28 27 28 27
100 89 87 100 83 97 98 95 100 100 73 88 95 96 91 80 71 65 68 62 54 51 50 48 46 43 42 39 37 36 35 35 36 35 34 33 34 34 35 36 37 36 33
86 95 87 89 100 92 100 98 100 80 76 94 100 95 92 68 67 72 62 52 53 54 52 52 50 50 44 41 38 36 38 38 35 34 37 39 37 34 31 30 29 27 26
73 77 92 93 100 99 96 100 84 75 93 96 96 86 71 70 68 60 57 54 55 55 61 60 64 60 58 53 46 53 53 51 54 52 49 44 39 34 33 30 26 25 24
70 69 71 75 74 69 72 72 73 86 95 96 75 70 69 67 62 61 60 61 64 61 64 66 64 64 70 71 80 77 74 67 64 60 54 51 43 42 40 36 30 28 25
57 66 72 75 76 76 76 77 80 89 75 70 62 60 62 62 61 61 65 62 61 65 65 72 74 73 73 75 82 74 71 70 64 57 54 51 51 43 40 40 41 36 30
59 64 64 65 67 64 65 67 65 68 58 60 55 55 64 64 64 59 58 60 65 68 66 75 78 76 79 84 91 77 64 63 60 68 71 70 65 62 59 48 46 43 35
47 51 53 54 54 55 55 55 53 60 60 58 57 56 60 63 63 62 63 61 60 56 64 71 73 82 82 81 73 75 70 79 78 78 76 74 79 78 68 61 61 56 46
42 46 47 46 46 46 51 52 54 60 58 61 60 59 56 56 56 61 73 62 82 83 77 74 82 94 93 97 88 82 79 70 72 84 85 82 82 83 80 74 66 58 50
50 48 49 49 53 60 59 52 53 53 47 53 55 66 75 80 89 89 80 62 59 74 90 76 78 84 88 82 77 91 87 91 84 88 82 77 74 72 75 76 71 62 62
58 61 57 55 53 53 59 66 67 64 66 71 74 72 80 83 87 89 100 94 71 76 80 82 87 89 99 100 92 93 90 100 99 100 87 84 80 77 80 80 76 75 66
64 68 66 66 63 60 63 63 72 78 85 91 89 84 99 96 96 91 80 75 83 78 76 82 83 98 93 100 100 97 84 94 100 91 100 99 88 79 77 79 75 71 67
Wind_Speed
43 44 45 45 44 44 44 47 48 49 52 54 55 57 60 62 64 66 69 71 74 76 78 79 80 82 82 81 80 78 77 77 77 77 73 72 70 66 67 65 65 61 59
47 46 46 46 47 50 52 54 54 55 57 59 62 64 66 68 70 72 76 80 82 85 89 90 90 90 89 88 87 87 86 83 84 84 82 77 75 71 69 68 68 66 62
49 49 49 53 56 58 58 60 61 62 63 66 68 69 71 73 77 81 84 87 92 95 96 97 96 94 92 91 90 90 90 91 91 90 89 85 80 80 76 74 71 69 66
54 55 57 61 63 62 64 67 68 69 71 73 74 75 77 79 84 87 91 94 95 96 96 96 97 95 89 91 94 93 94 94 93 93 92 90 88 84 80 79 77 74 69
60 63 65 68 70 69 71 73 75 75 78 81 81 83 83 86 87 88 90 89 88 89 90 90 93 94 88 78 84 87 90 92 93 94 93 90 91 90 85 83 81 79 76
68 69 72 74 75 77 75 69 71 70 72 73 74 75 77 80 82 82 83 82 81 81 79 81 85 83 81 69 69 75 79 82 87 88 93 91 91 91 90 85 84 83 82
73 72 73 73 74 73 74 72 73 77 76 74 75 75 74 74 76 76 75 70 64 62 62 62 68 75 71 63 57 61 67 73 76 84 86 89 90 88 89 87 85 84 85
76 76 75 71 71 73 74 77 80 79 74 72 70 69 68 67 66 57 52 48 46 44 45 47 51 58 53 49 45 48 54 61 67 73 78 83 86 88 88 89 89 86 87
75 73 72 73 76 78 81 83 79 75 71 67 63 60 53 44 39 38 33 34 37 41 45 46 44 46 47 40 34 35 41 47 54 61 67 72 77 82 86 88 89 88 89
74 75 77 80 82 85 85 75 70 63 59 53 42 33 28 27 28 25 28 34 36 40 40 42 42 37 36 35 28 24 29 33 40 48 54 59 66 73 77 80 83 86 84
77 80 82 85 86 73 67 61 55 43 29 25 22 18 18 19 23 26 29 33 38 40 41 39 36 33 29 27 25 21 19 21 27 33 39 45 52 59 64 67 70 74 79
82 80 76 65 62 59 53 35 20 20 19 18 18 17 18 22 23 26 31 35 37 36 34 34 33 31 29 27 23 21 17 14 15 21 26 31 36 42 48 53 56 61 65
62 60 57 51 35 27 19 14 17 13 13 16 16 19 23 24 28 31 33 33 31 30 32 33 32 30 29 28 27 24 20 17 13 11 11 15 21 28 34 39 44 49 54
37 29 23 19 17 18 19 17 16 14 17 20 22 23 23 26 29 31 29 28 29 29 29 30 30 29 28 27 27 26 26 24 22 19 16 14 13 14 21 30 37 41 44
13 14 16 18 19 21 18 15 16 18 19 18 19 22 25 29 31 25 27 28 28 29 28 29 26 24 24 25 25 25 24 23 23 23 24 24 24 23 23 24 25 26 30
15 14 15 22 19 24 19 18 21 23 22 19 22 25 28 26 22 26 29 29 30 30 26 22 23 22 22 22 22 23 23 24 24 24 25 26 27 28 29 30 32 34 37
21 18 18 20 17 18 19 22 25 25 23 22 25 27 26 22 26 28 28 28 22 22 23 23 24 24 24 23 22 22 22 22 22 22 22 23 25 27 29 31 33 37 39
19 21 21 21 19 18 21 24 25 24 22 23 26 21 20 24 26 25 23 17 18 20 21 20 20 23 22 22 24 26 26 25 26 26 28 28 28 29 29 32 36 38 40
21 21 20 23 25 24 26 27 25 22 22 21 18 21 22 23 19 15 16 17 19 20 21 18 19 23 24 24 23 27 28 29 30 31 31 30 30 31 33 34 36 38 42
9 12 15 17 19 21 22 21 21 17 19 19 21 20 18 14 17 17 18 18 18 17 17 18 17 20 23 24 26 28 31 31 32 34 35 36 37 38 39 40 42 44 46
5 8 10 11 12 12 12 13 14 15 16 15 16 15 12 14 17 18 17 17 15 16 15 14 19 20 26 25 29 32 32 34 36 37 38 39 40 43 42 43 44 47 47
6 6 8 11 12 11 11 10 10 11 11 11 12 11 13 16 18 21 21 20 20 19 19 23 24 25 27 29 30 33 33 34 36 38 40 41 43 47 50 50 49 52 53
11 10 10 10 11 11 11 11 10 11 10 10 10 11 11 12 14 14 17 17 19 21 22 22 22 27 27 31 33 33 38 39 40 44 48 47 48 49 53 54 56 56 57
14 12 12 13 9 7 7 9 11 12 10 10 8 12 17 19 21 22 22 24 23 23 25 27 26 31 34 39 38 41 46 48 49 54 52 53 54 53 55 57 59 61 61
18 18 16 16 14 15 14 14 14 14 15 17 19 20 22 24 25 27 27 27 28 31 31 33 36 36 41 46 46 49 50 52 56 59 59 60 62 62 62 64 65 66 68
25 24 22 22 21 20 21 22 24 24 25 27 28 28 30 30 31 33 35 37 38 38 40 42 40 43 46 49 51 54 53 53 57 60 62 66 69 67 67 68 71 72 72
Wind_Direction
269 272 274 277 277 279 278 276 277 278 279 281 281 280 279 279 279 280 281 281 280 279 277 275 273 271 270 269 266 264 262 262 263 260 260 259 255 255 258 255 252 255 258
270 275 279 280 280 278 277 279 280 281 281 282 282 282 282 282 283 284 284 284 284 283 280 278 275 272 270 269 267 265 263 262 261 261 259 258 258 255 252 253 253 251 253
275 275 274 274 274 276 278 279 280 281 282 281 281 281 281 283 283 284 284 285 283 280 280 279 279 278 276 273 270 268 266 264 262 261 261 259 257 257 256 253 250 251 248
268 271 271 272 274 277 279 280 281 282 282 282 281 281 282 282 283 284 286 284 284 285 285 283 283 282 278 274 271 268 265 262 260 259 258 258 257 256 254 256 255 252 248
269 271 272 274 278 280 281 282 283 284 284 282 281 281 282 282 284 283 284 285 287 288 289 289 287 287 286 279 271 267 264 261 259 257 257 255 255 255 253 252 254 254 252
272 273 276 277 278 281 281 282 285 285 286 287 284 282 281 281 282 284 286 288 287 288 290 290 291 291 290 285 273 265 261 259 256 256 254 254 252 253 254 251 251 252 253
278 279 280 280 281 282 282 285 287 288 287 287 284 283 283 284 284 285 285 285 288 288 290 293 296 295 293 289 277 266 260 257 254 253 253 254 252 252 253 253 249 249 250
279 280 281 281 282 282 284 286 289 288 288 286 284 284 283 282 282 282 282 285 292 299 305 304 305 305 300 295 280 268 259 257 255 252 252 252 253 253 252 252 252 250 248
277 277 277 279 282 285 287 289 288 288 286 285 284 284 281 278 279 281 287 298 304 311 309 313 316 317 315 304 289 272 262 259 256 254 253 252 253 252 253 253 253 252 251
275 276 279 282 285 285 285 285 287 285 283 281 280 277 276 272 278 290 303 307 309 310 312 317 319 323 328 327 312 291 271 261 258 255 253 252 252 253 255 255 254 254 252
276 278 280 282 282 282 284 285 284 279 269 267 265 268 272 281 291 298 304 306 310 311 313 316 318 328 333 347 350 332 302 278 267 262 259 257 256 256 256 257 256 255 255
275 277 277 277 280 282 281 273 257 240 249 250 252 265 282 292 292 297 308 308 308 310 314 317 324 331 339 347 350 3 1 340 297 277 270 266 263 260 259 258 257 255 256
271 271 273 276 273 265 259 215 225 237 252 257 264 275 279 290 299 307 303 303 307 311 316 319 324 330 336 342 348 357 357 359 0 350 324 297 279 269 264 262 261 261 259
261 260 255 253 232 226 211 220 222 244 252 261 273 278 287 299 305 301 302 302 307 311 316 319 323 327 332 336 340 345 348 351 352 345 333 325 313 294 279 270 265 265 263
228 231 221 211 219 220 223 234 238 252 268 281 281 291 303 305 299 296 298 306 310 313 317 319 324 329 332 335 336 338 340 340 339 339 336 334 329 323 313 302 290 284 279
221 226 228 222 232 219 226 235 248 261 280 286 295 302 304 299 295 299 309 310 315 317 324 332 335 336 336 337 336 336 339 339 339 337 333 328 322 317 313 309 305 301 298
229 225 227 226 228 229 242 245 259 276 282 288 295 295 293 292 303 308 306 310 319 329 330 329 333 333 332 334 336 338 342 341 336 332 330 327 321 314 308 304 300 295 294
244 233 226 225 236 251 250 252 267 275 281 287 296 292 288 297 303 303 304 313 322 328 336 335 336 332 335 340 346 352 351 349 345 340 336 329 323 318 313 306 300 297 295
236 242 244 245 250 258 257 260 269 276 284 286 283 287 294 300 302 304 308 311 315 324 328 332 334 341 345 349 353 347 342 340 339 334 332 328 322 319 315 312 307 304 301
232 242 251 255 256 258 260 261 267 271 275 282 285 289 289 289 296 307 311 314 318 322 322 334 337 343 343 346 342 341 336 334 331 329 329 330 327 323 321 315 313 312 310
272 266 265 264 263 265 263 260 268 272 282 282 290 284 282 295 306 308 307 313 313 324 325 337 341 340 341 339 342 337 330 328 326 330 332 328 325 323 321 319 316 314 311
315 288 275 269 267 264 261 258 269 275 282 279 284 293 301 304 310 316 322 327 331 332 338 335 332 335 333 330 327 330 335 339 337 333 328 325 326 325 323 321 318 314 313
342 316 300 290 275 269 272 275 272 276 278 294 313 323 329 325 322 320 327 316 328 325 335 329 330 332 336 339 335 335 336 337 333 333 331 327 328 327 326 324 321 318 315
335 330 326 317 294 286 281 291 290 296 302 313 300 310 313 315 317 316 315 316 320 320 324 327 321 328 326 329 325 327 327 328 328 329 325 326 323 322 322 322 320 319 319
303 302 293 297 292 287 290 301 294 287 294 290 291 296 301 302 301 303 300 302 303 313 317 319 321 320 319 319 323 320 320 321 323 324 323 321 321 320 320 319 320 321 319
292 289 288 286 283 280 277 282 280 286 291 297 294 292 294 302 297 296 296 297 301 304 304 309 315 319 319 319 316 318 318 315 315 318 318 316 318 319 318 317 318 318 319